Regional Weather Roundup
Issued by NWS Sterling, VA

Home | Current Version | Previous Version | Graphics & Text | Print | Product List | Glossary On
Versions: 1 2 3 4 5 6 7 8 9 10 11 12 13 14 15 16 17 18 19 20 21 22 23 24 25 26 27 28 29 30 31 32 33 34 35 36 37 38 39 40 41 42 43 44 45 46 47 48 49 50
000
ASUS41 KLWX 191611
RWRLWX

REGIONAL WEATHER ROUNDUP
NATIONAL WEATHER SERVICE BALTIMORE MD/WASHINGTON DC
1200 PM EDT THU APR 19 2018

Note: "FAIR" indicates few or no clouds below 12,000 feet
with no significant weather and/or obstructions to visibility.
 TC=TEMPERATURE CELSIUS

 * =Non NWS site. Station does not report precipitation (e.g. rain,
    snow, etc.), thunder, or fog.

DCZ001-MDZ009-015-VAZ040>042-051-053>054-191700-
WASHINGTON METRO

CITY           SKY/WX    TMP DP  RH WIND       PRES   REMARKS
WASHINGTON NAT LGT RAIN  54  39  57 NW29G39   29.78R
DULLES         LGT RAIN  51  38  60 NW23G38   29.79R
ANDREWS AFB    DRIZZLE   55  46  71 W10       29.75R
QUANTICO       LGT RAIN  53  51  93 W5        29.79R
COLLEGE PARK*  CLOUDY    54  36  51 W16G28    29.77R
LEESBURG*      CLOUDY    52  37  58 NW22G38   29.82R
MANASSAS*      LGT RAIN  50  37  61 NW25G36   29.80R
GAITHERSBURG*  LGT RAIN  50  38  63 NW23G29   29.78R

$$

MDZ006>007-011-014-191700-
BALTIMORE METRO

CITY           SKY/WX    TMP DP  RH WIND       PRES   REMARKS
BWI AIRPORT    CLOUDY    55  40  56 W21G37    29.74R
MD SCIENCE CTR   N/A     57  37  47 MISG      29.75R
MARTIN STATE   CLOUDY    57  43  58 W25G32    29.74R
ANNAPOLIS      CLOUDY    59  46  62 W5        29.73S
FORT MEADE*    CLOUDY    54  39  58 W28G35    29.78R

$$

MDZ012-015-019>023-191700-
MARYLAND EASTERN SHORE

CITY           SKY/WX    TMP DP  RH WIND       PRES   REMARKS
OCEAN CITY     LGT RAIN  52  43  71 CALM      29.75S
SALISBURY      PTSUNNY   52  47  83 VRB3      29.74S
BAY BRIDGE AP* CLOUDY    54  43  66 SW3       29.74S
CAMBRIDGE*       N/A     55  48  76 W7        29.76R
EASTON*        PTSUNNY   55  45  67 W8        29.78R

$$

MDZ017>025-191700-
SOUTHERN MARYLAND

CITY           SKY/WX    TMP DP  RH WIND       PRES   REMARKS
PATUXENT RIVER FAIR      61  48  62 CALM      29.73F
ST INIGOES     FAIR      57  49  74 SW6       29.74S
LEONARDTOWN*   PTSUNNY   59  46  63 W5        29.75F

$$

MDZ003>005-191700-
NORTH CENTRAL MARYLAND

CITY           SKY/WX    TMP DP  RH WIND       PRES   REMARKS
FREDERICK*     LGT RAIN  50  36  57 NW20G29   29.83R
HAGERSTOWN APT CLOUDY    48  36  63 W18       29.80R
WESTMINSTER*   LGT RAIN  46  43  87 NW15      29.78R

$$

MDZ501>502-191700-
WESTERN MARYLAND

CITY           SKY/WX    TMP DP  RH WIND       PRES   REMARKS
OAKLAND*       CLOUDY    28  28 100 W14G23    29.86R VSB 3/4 WCI  17
CUMBERLAND*    FAIR      45  32  61 NW20G26   29.96R

$$

VAZ025>031-191700-
SHENANDOAH VALLEY

CITY           SKY/WX    TMP DP  RH WIND       PRES   REMARKS
WINCHESTER*    CLOUDY    46  32  57 W20G29    29.84R
FRONT ROYAL*   CLOUDY    52  32  46 NW17G31   29.84R
LURAY*         FAIR      50  32  50 W16G32    29.86R
NEW MARKET*    FAIR      50  29  43 W16G28    29.88R
STAUNTON*      CLOUDY    49  32  51 NW15G21   29.90R
WAYNESBORO*    CLOUDY    52  35  52 W9G21     29.87R

$$

WVZ021-048>050-054>055-191700-
EASTERN WEST VIRGINIA PANHANDLE

CITY           SKY/WX    TMP DP  RH WIND       PRES   REMARKS
MARTINSBURG    CLOUDY    49  34  56 W17G33    29.82R
PETERSBURG*    CLOUDY    46  32  58 W20G25    29.91R

$$

VAZ036>039-050-191700-
CENTRAL FOOTHILLS

CITY           SKY/WX    TMP DP  RH WIND       PRES   REMARKS
CHARLOTTESVILL PTSUNNY   59  35  40 NW13G25   29.83R
CULPEPER*      LGT RAIN  52  40  64 NW16G23   29.83R
ORANGE*        CLOUDY    55  39  54 NW17G36   29.80R
GORDONSVILLE*  CLOUDY    60  37  42 W13G25    29.80R
WARRENTON*     LGT RAIN  50  38  63 W17G25    29.81R

$$

VAZ055>057-191700-
NORTH AND CENTRAL PIEDMONT

CITY           SKY/WX    TMP DP  RH WIND       PRES   REMARKS
FREDERICKSBRG* PTSUNNY   59  50  70 W7        29.77R
STAFFORD*      LGT RAIN  55  54  97 CALM      29.81R

$$

NCZ024-NYZ072-PAZ021-071-VAZ022-071-191700-
OTHER REGIONAL OBSERVATIONS

CITY           SKY/WX    TMP DP  RH WIND       PRES   REMARKS
NEW YORK CITY  LGT RAIN  44  38  79 N7        29.73S
PHILADELPHIA   CLOUDY    48  39  71 CALM      29.73R
PITTSBURGH     CLOUDY    35  28  75 NW17G26   29.99R WCI  25
ROANOKE        LGT RAIN  48  32  53 NW25G33   29.97R
RICHMOND       FAIR      68  50  52 W12G17    29.76S
RALEIGH        PTSUNNY   73  51  46 N10       29.80R

$$

ANZ530>537-191700-
MARINE OBSERVATIONS

STATION/POSITION TIME  TEMP    WIND        PRES
                       AIR SEA DIR/SP/G
                 (UTC) (F)     (DEG/KT/KT) (MB)
THOMAS PT LIGHT  1600   52 51  190/  4/  4 1007.9S
BALT KEY BRIDGE  1548   56     290/ 25/ 28 1006.4S
COVE POINT       1542   51     160/  5/  6 1007.9R
LEWISETTA        1548   54 55   60/  4/  6 1007.4F
SOLOMONS ISLAND  1548   54 52   60/  3/  3 1006.6F
PINEY POINT      1548          350/  3/  4   N/A

$$




USA.gov is the U.S. government's official web portal to all federal, state and local government web resources and services.